Terminal Aerodrome Forecast
Issued by NWS

Home | Current Version | Previous Version | Graphics & Text | Print | Product List | Glossary On
Versions: 1 2 3 4 5 6 7 8 9 10 11 12 13 14 15 16 17 18 19 20 21 22 23 24 25 26 27 28 29 30 31 32 33
000
FTUS43 KLOT 312300
TAFMDW
TAF
KMDW 312320Z 0100/0124 19005KT P6SM SCT120 SCT300
     FM011400 22012G20KT P6SM SCT040 BKN080 PROB30 0114/0120
      VRB10G20KT 5SM -TSRA OVC035CB
     FM012000 23014G22KT P6SM SCT030 SCT300=

USA.gov is the U.S. government's official web portal to all federal, state and local government web resources and services.